Regional Weather Roundup
Issued by NWS

Home | Current Version | Previous Version | Text Only | Print | Product List | Glossary Off
Versions: 1 2 3 4 5 6 7 8 9 10 11 12 13 14 15 16 17 18 19 20 21 22 23 24 25 26 27 28 29 30 31 32 33 34 35 36 37 38 39 40 41 42 43 44 45 46 47 48 49 50

000
ASUS43 KBIS 300610
RWRND

NORTH DAKOTA REGIONAL WEATHER ROUNDUP
NATIONAL WEATHER SERVICE BISMARCK ND
100 AM CDT SUN AUG 30 2015

NOTE: "FAIR" INDICATES FEW OR NO CLOUDS BELOW 12,000 FEET WITH NO
SIGNIFICANT WEATHER AND/OR OBSTRUCTIONS TO VISIBILITY.


NDZ001>003-009>011-017-300700-
NORTHWEST NORTH DAKOTA

CITY           SKY/WX    TMP DP  RH WIND       PRES   REMARKS
WILLISTON      MOCLDY    66  54  65 CALM      29.73F HAZE
6HR MIN TEMP:  65; 6HR MAX TEMP:  92;

MINOT          FAIR      81  60  48 S9        29.73F
MINOT AFB      FAIR      70  60  72 CALM      29.73F
$$

NDZ018>021-031>035-040>046-300700-
SOUTHWEST NORTH DAKOTA

CITY           SKY/WX    TMP DP  RH WIND       PRES   REMARKS
BISMARCK       PTCLDY    70  64  81 SE9       29.80F
6HR MIN TEMP:  68; 6HR MAX TEMP:  86;

GARRISON         N/A     73  64  73 S3        29.78S
6HR MIN TEMP:  73; 6HR MAX TEMP:  84;

HETTINGER ARPT PTCLDY    70  54  56 SE8       29.84F
$$

NDZ004>008-012>016-024-026-027-054-300700-
NORTHEAST NORTH DAKOTA

CITY           SKY/WX    TMP DP  RH WIND       PRES   REMARKS
GRAND FORKS    FAIR      69  67  93 S12       29.79F
GRND FRKS AFB  FAIR      69  68  95 S8        29.79F
DEVILS LAKE    FAIR      73  63  68 SE5       29.78F
$$

NDZ022-023-025-028>030-036>039-047>053-300700-
SOUTHEAST NORTH DAKOTA

CITY           SKY/WX    TMP DP  RH WIND       PRES   REMARKS
FARGO          FAIR      69  64  84 S14       29.85F
6HR MIN TEMP:  69; 6HR MAX TEMP:  81;

JAMESTOWN      FAIR      70  69  97 S12       29.83S
$$




USA.gov is the U.S. government's official web portal to all federal, state and local government web resources and services.